カタログに戻る

FENGYUN 1C DEB

運用中SSO
NORAD 32210·DEBRIS·🇨🇳 China

打ち上げ May 10, 1999 から Taiyuan Satellite Launch Center

Loading…

次のパス (今後24時間)

TLE

経年Source: Space-Track

元期: Sep 8, 2026, 22:38 UTC

1 32210U 99025CVG 26251.94314257  .00001211  00000-0  66544-3 0  9997
2 32210  98.8485 302.2426 0071895 126.1174 234.6681 14.12265717651999

AllMySatでFENGYUN 1C DEBをリアルタイム追跡

Download on the App Store